Tracking 19644 objects as of 25-Apr-2019
HD Live streaming from Space Station
objects crossing your sky now

BEIDOU 3M14

Track BEIDOU 3M14 now!


NORAD ID: 43623
Int'l Code: 2018-072B
Perigee: 21,515.8 km
Apogee: 21,554.5 km
Inclination: 55.0 °
Period: 773.2 minutes
Semi major axis: 27906 km
RCS: Unknown
Launch date: September 19, 2018
Source: People's Republic of China (PRC)
Launch site: Xichang Space Center, China (XSC)
aabbcc
Your satellite tracking list
Your tracking list is empty




NASA's NSSDC Master Catalog

Two Line Element Set (TLE):
1 43623U 18072B   19114.45814104 +.00000010 +00000-0 +00000-0 0  9990
2 43623 055.0173 150.0541 0006938 299.0437 229.3798 01.86231749004035
Source of the keplerian elements: AFSPC